| time (UTC) | temp C | wind direction | speed KPH | gust KPH | rain 1hr cm | rain 24hr cm | rain mn cm | humidity % | barometer mb |
| 20260906044559 | 20 | 0 | 0.0 | 0.0 | 0.00 | 0.03 | 0.00 | 97 | 1016.9 |
| 20260906043057 | 20 | 0 | 0.0 | 0.0 | 0.00 | 0.03 | 0.00 | 97 | 1017.0 |
| 20260906041559 | 20 | 0 | 0.0 | 0.0 | 0.00 | 0.03 | 0.00 | 97 | 1016.6 |
| 20260906034601 | 20 | 0 | 0.0 | 0.0 | 0.00 | 0.03 | 0.03 | 96 | 1017.0 |
| 20260906033054 | 20 | 0 | 0.0 | 0.0 | 0.00 | 0.03 | 0.03 | 96 | 1017.1 |
| 20260906031622 | 21 | 0 | 0.0 | 0.0 | 0.00 | 0.03 | 0.03 | 96 | 1017.4 |
| 20260906030056 | 21 | 0 | 0.0 | 0.0 | 0.00 | 0.03 | 0.03 | 96 | 1017.5 |
| 20260906024605 | 21 | 0 | 0.0 | 0.0 | 0.00 | 0.03 | 0.03 | 96 | 1017.4 |
| 20260906023109 | 21 | 0 | 0.0 | 0.0 | 0.00 | 0.03 | 0.03 | 95 | 1017.3 |
| 20260906021558 | 21 | 0 | 0.0 | 0.0 | 0.00 | 0.03 | 0.03 | 95 | 1017.0 |
| 20260906014600 | 22 | 0 | 0.0 | 0.0 | 0.00 | 0.03 | 0.03 | 94 | 1016.6 |
| 20260906013058 | 22 | 0 | 0.0 | 0.0 | 0.00 | 0.03 | 0.03 | 93 | 1016.8 |
| 20260906011612 | 22 | 0 | 0.0 | 0.0 | 0.00 | 0.03 | 0.03 | 93 | 1016.5 |
| 20260906010059 | 22 | 0 | 0.0 | 0.0 | 0.00 | 0.03 | 0.03 | 92 | 1016.5 |
| 20260906004609 | 22 | 0 | 0.0 | 0.0 | 0.00 | 0.03 | 0.03 | 92 | 1016.4 |
| 20260906003108 | 23 | 0 | 0.0 | 0.0 | 0.00 | 0.03 | 0.03 | 90 | 1016.2 |
| 20260906001611 | 23 | 0 | 0.0 | 0.0 | 0.00 | 0.03 | 0.03 | 89 | 1015.9 |
| 20260906000110 | 23 | 0 | 0.0 | 0.0 | 0.00 | 0.03 | 0.03 | 88 | 1015.8 |
| 20260905234602 | 24 | 0 | 0.0 | 0.0 | 0.00 | 0.03 | 0.03 | 84 | 1015.5 |
| 20260905233102 | 25 | 0 | 0.0 | 0.0 | 0.00 | 0.03 | 0.03 | 82 | 1015.6 |
| 20260905231605 | 25 | 0 | 0.0 | 0.0 | 0.00 | 0.03 | 0.03 | 80 | 1015.5 |
| 20260905230104 | 26 | 0 | 0.0 | 0.0 | 0.00 | 0.03 | 0.03 | 80 | 1015.4 |
| 20260905224555 | 26 | 0 | 0.0 | 0.0 | 0.00 | 0.03 | 0.03 | 78 | 1015.2 |
| 20260905223055 | 26 | 0 | 0.0 | 0.0 | 0.00 | 0.03 | 0.03 | 77 | 1015.5 |
| 20260905221624 | 26 | 0 | 0.0 | 0.0 | 0.00 | 0.03 | 0.03 | 77 | 1015.5 |
| 20260905220056 | 26 | 0 | 0.0 | 0.0 | 0.00 | 0.03 | 0.03 | 77 | 1015.5 |
| 20260905214607 | 26 | 0 | 0.0 | 0.0 | 0.00 | 0.03 | 0.03 | 77 | 1015.8 |
| 20260905213105 | 26 | 0 | 0.0 | 0.0 | 0.00 | 0.03 | 0.03 | 78 | 1015.8 |
| 20260905211556 | 25 | 0 | 0.0 | 0.0 | 0.00 | 0.03 | 0.03 | 76 | 1016.4 |
| 20260905210111 | 25 | 0 | 0.0 | 0.0 | 0.00 | 0.03 | 0.03 | 78 | 1016.6 |
| 20260905204600 | 25 | 0 | 0.0 | 0.0 | 0.00 | 0.03 | 0.03 | 77 | 1016.3 |
| 20260905203100 | 25 | 0 | 0.0 | 0.0 | 0.00 | 0.03 | 0.03 | 79 | 1016.5 |
| 20260905201556 | 24 | 0 | 0.0 | 0.0 | 0.00 | 0.03 | 0.03 | 83 | 1016.5 |
| 20260905200127 | 23 | 0 | 0.0 | 0.0 | 0.00 | 0.03 | 0.03 | 85 | 1017.0 |
| 20260905194603 | 23 | 0 | 0.0 | 0.0 | 0.00 | 0.03 | 0.03 | 88 | 1017.3 |
| 20260905193059 | 22 | 0 | 0.0 | 0.0 | 0.00 | 0.03 | 0.03 | 88 | 1017.1 |
| 20260905191554 | 22 | 0 | 0.0 | 0.0 | 0.00 | 0.03 | 0.03 | 91 | 1017.1 |
| 20260905190056 | 22 | 0 | 0.0 | 0.0 | 0.03 | 0.03 | 0.03 | 90 | 1017.4 |
| 20260905184603 | 22 | 0 | 0.0 | 0.0 | 0.03 | 0.05 | 0.03 | 89 | 1017.7 |
| 20260905183057 | 22 | 0 | 0.0 | 0.0 | 0.03 | 0.05 | 0.03 | 90 | 1018.1 |
| 20260905181555 | 24 | 0 | 0.0 | 3.2 | 0.03 | 0.05 | 0.03 | 77 | 1018.4 |
| 20260905180114 | 28 | 39 | 0.0 | 0.0 | 0.00 | 0.03 | 0.00 | 67 | 1017.9 |
| 20260905174557 | 28 | 0 | 0.0 | 0.0 | 0.00 | 0.03 | 0.00 | 69 | 1017.1 |
| 20260905173124 | 29 | 0 | 0.0 | 0.0 | 0.00 | 0.03 | 0.00 | 68 | 1017.1 |
| 20260905171603 | 30 | 0 | 0.0 | 0.0 | 0.00 | 0.03 | 0.00 | 66 | 1017.7 |
| 20260905164601 | 30 | 0 | 0.0 | 0.0 | 0.00 | 0.03 | 0.00 | 64 | 1017.3 |
| 20260905163104 | 30 | 0 | 0.0 | 0.0 | 0.00 | 0.03 | 0.00 | 65 | 1017.9 |
| 20260905161600 | 30 | 0 | 0.0 | 0.0 | 0.00 | 0.03 | 0.00 | 68 | 1018.1 |
| 20260905160101 | 29 | 0 | 0.0 | 0.0 | 0.00 | 0.03 | 0.00 | 70 | 1018.5 |
| 20260905154604 | 29 | 0 | 0.0 | 0.0 | 0.00 | 0.03 | 0.00 | 71 | 1018.4 |
| 20260905153059 | 28 | 0 | 0.0 | 1.6 | 0.00 | 0.03 | 0.00 | 73 | 1018.4 |
| 20260905151601 | 28 | 0 | 0.0 | 0.0 | 0.00 | 0.03 | 0.00 | 73 | 1018.3 |
| 20260905144555 | 27 | 0 | 0.0 | 0.0 | 0.00 | 0.03 | 0.00 | 77 | 1018.4 |
| 20260905143103 | 27 | 0 | 0.0 | 0.0 | 0.00 | 0.03 | 0.00 | 80 | 1018.4 |
| 20260905141558 | 26 | 0 | 0.0 | 0.0 | 0.00 | 0.03 | 0.00 | 85 | 1018.4 |
| 20260905140107 | 25 | 0 | 0.0 | 0.0 | 0.00 | 0.03 | 0.00 | 87 | 1018.5 |
| 20260905134606 | 23 | 0 | 0.0 | 0.0 | 0.00 | 0.03 | 0.00 | 91 | 1018.6 |
| 20260905133057 | 23 | 0 | 0.0 | 0.0 | 0.00 | 0.03 | 0.00 | 95 | 1018.6 |
| 20260905131601 | 22 | 0 | 0.0 | 0.0 | 0.00 | 0.03 | 0.00 | 98 | 1018.7 |
| 20260905130101 | 21 | 0 | 0.0 | 0.0 | 0.00 | 0.03 | 0.00 | 99 | 1018.9 |
| 20260905124600 | 20 | 0 | 0.0 | 0.0 | 0.00 | 0.03 | 0.00 | 98 | 1018.8 |
| 20260905123102 | 20 | 0 | 0.0 | 0.0 | 0.00 | 0.03 | 0.00 | 98 | 1018.8 |
| 20260905121603 | 20 | 0 | 0.0 | 0.0 | 0.00 | 0.03 | 0.00 | 98 | 1018.6 |
| 20260905120109 | 19 | 0 | 0.0 | 0.0 | 0.00 | 0.03 | 0.00 | 98 | 1018.5 |
| 20260905114611 | 19 | 0 | 0.0 | 0.0 | 0.00 | 0.03 | 0.00 | 98 | 1018.4 |
| 20260905113102 | 18 | 0 | 0.0 | 0.0 | 0.00 | 0.03 | 0.00 | 98 | 1018.4 |
| 20260905111651 | 18 | 0 | 0.0 | 0.0 | 0.00 | 0.03 | 0.00 | 97 | 1018.2 |
| 20260905104609 | 19 | 0 | 0.0 | 0.0 | 0.00 | 0.03 | 0.00 | 97 | 1017.7 |
| 20260905103105 | 19 | 0 | 0.0 | 0.0 | 0.00 | 0.03 | 0.00 | 98 | 1017.6 |
| 20260905101609 | 19 | 0 | 0.0 | 0.0 | 0.00 | 0.03 | 0.00 | 97 | 1017.4 |
| 20260905100116 | 19 | 0 | 0.0 | 0.0 | 0.00 | 0.03 | 0.00 | 97 | 1017.4 |
| 20260905094608 | 19 | 0 | 0.0 | 0.0 | 0.00 | 0.03 | 0.00 | 98 | 1017.4 |
| 20260905093123 | 19 | 0 | 0.0 | 0.0 | 0.00 | 0.03 | 0.00 | 97 | 1017.5 |
| 20260905091610 | 20 | 0 | 0.0 | 0.0 | 0.00 | 0.03 | 0.00 | 97 | 1017.6 |
| 20260905090105 | 20 | 0 | 0.0 | 0.0 | 0.00 | 0.03 | 0.00 | 97 | 1017.6 |
| 20260905084609 | 20 | 0 | 0.0 | 0.0 | 0.00 | 0.03 | 0.00 | 97 | 1017.8 |
| 20260905083101 | 20 | 0 | 0.0 | 0.0 | 0.00 | 0.03 | 0.00 | 97 | 1018.1 |
| 20260905081557 | 20 | 0 | 0.0 | 0.0 | 0.00 | 0.03 | 0.00 | 97 | 1018.1 |
| 20260905080055 | 20 | 0 | 0.0 | 0.0 | 0.00 | 0.03 | 0.00 | 97 | 1018.3 |
| 20260905074611 | 20 | 0 | 0.0 | 0.0 | 0.00 | 0.03 | 0.00 | 97 | 1018.2 |
| 20260905073102 | 20 | 0 | 0.0 | 0.0 | 0.00 | 0.03 | 0.00 | 97 | 1018.4 |
| 20260905071602 | 20 | 0 | 0.0 | 0.0 | 0.00 | 0.03 | 0.00 | 97 | 1018.5 |
| 20260905070058 | 20 | 0 | 0.0 | 0.0 | 0.00 | 0.03 | 0.00 | 97 | 1018.5 |
| 20260905064624 | 20 | 0 | 0.0 | 0.0 | 0.00 | 0.03 | 0.00 | 97 | 1018.6 |
| 20260905063103 | 20 | 0 | 0.0 | 0.0 | 0.00 | 0.03 | 0.00 | 97 | 1018.6 |
| 20260905061603 | 20 | 0 | 0.0 | 0.0 | 0.00 | 0.03 | 0.00 | 97 | 1018.8 |
| 20260905060106 | 21 | 0 | 0.0 | 0.0 | 0.00 | 0.03 | 0.00 | 97 | 1018.9 |
| 20260905054559 | 21 | 0 | 0.0 | 0.0 | 0.00 | 0.03 | 0.00 | 97 | 1019.2 |
| 20260905053059 | 21 | 0 | 0.0 | 0.0 | 0.00 | 0.03 | 0.00 | 97 | 1019.3 |
| 20260905051556 | 21 | 0 | 0.0 | 0.0 | 0.00 | 0.03 | 0.00 | 96 | 1019.3 |
| 20260905050058 | 21 | 0 | 0.0 | 0.0 | 0.00 | 0.03 | 0.00 | 96 | 1019.2 |